EW5195 Weather Reports


Display with metric or nautical units.
time (UTC)temp
F
wind
direction
speed
MPH
gust
MPH
rain 1hr
in
rain 24hr
in
rain mn
in
humidity
%
barometer
mb
20260505183058 83 186 2.0 9.0 0.00 0.00 0.00 33 1014.0
20260505181553 82 174 0.0 10.0 0.00 0.00 0.00 40 1014.1
20260505180057 82 111 2.0 12.0 0.00 0.00 0.00 36 1014.5
20260505174556 81 180 1.0 7.0 0.00 0.00 0.00 41 1014.6
20260505173053 81 0 1.0 9.0 0.00 0.00 0.00 45 1014.9
20260505171553 80 245 0.0 7.0 0.00 0.00 0.00 48 1015.0
20260505170053 80 167 0.0 6.0 0.00 0.00 0.00 49 1015.1
20260505164600 79 173 1.0 8.0 0.00 0.00 0.00 49 1015.2
20260505163054 79 0 0.0 4.0 0.00 0.00 0.00 50 1015.4
20260505161558 78 0 0.0 6.0 0.00 0.00 0.00 50 1015.6
20260505153108 75 263 1.0 6.0 0.00 0.00 0.00 56 1016.1
20260505151554 74 212 1.0 5.0 0.00 0.00 0.00 54 1016.0
20260505124601 64 0 0.0 2.0 0.00 0.00 0.00 72 1016.1
20260505123057 63 0 0.0 5.0 0.00 0.00 0.00 73 1016.0
20260505121553 62 260 0.0 4.0 0.00 0.00 0.00 75 1015.9
20260505120105 61 0 0.0 5.0 0.00 0.00 0.00 76 1015.8
20260505114555 59 0 0.0 6.0 0.00 0.00 0.00 80 1015.7
20260505113111 58 0 0.0 3.0 0.00 0.00 0.00 81 1015.6
20260505111554 57 0 0.0 3.0 0.00 0.00 0.00 83 1015.5
20260505101550 57 0 0.0 3.0 0.00 0.00 0.00 81 1015.3
20260505100051 57 0 0.0 1.0 0.00 0.00 0.00 80 1015.3
20260505094552 58 0 0.0 4.0 0.00 0.00 0.00 80 1015.1
20260505093102 58 0 0.0 3.0 0.00 0.00 0.00 79 1015.0
20260505091556 59 0 0.0 3.0 0.00 0.00 0.00 78 1015.0
20260505090055 59 0 0.0 3.0 0.00 0.00 0.00 77 1014.9
20260505084557 59 0 0.0 1.0 0.00 0.00 0.00 77 1014.8
20260505083055 60 0 0.0 1.0 0.00 0.00 0.00 76 1014.7
20260505081554 60 0 0.0 3.0 0.00 0.00 0.00 76 1015.0
20260505080108 60 0 0.0 5.0 0.00 0.00 0.00 75 1014.8
20260505074551 61 185 0.0 8.0 0.00 0.00 0.00 74 1014.7
20260505073100 61 0 0.0 4.0 0.00 0.00 0.00 74 1014.6
20260505071552 61 0 0.0 3.0 0.00 0.00 0.00 74 1014.4
20260505070055 61 0 0.0 4.0 0.00 0.00 0.00 74 1014.4
20260505064600 61 169 0.0 3.0 0.00 0.00 0.00 73 1014.4
20260505063103 62 0 0.0 3.0 0.00 0.00 0.00 71 1014.2
20260505061606 62 0 0.0 7.0 0.00 0.00 0.00 70 1014.5
20260505060058 63 187 0.0 5.0 0.00 0.00 0.00 69 1014.4
20260505054554 63 0 0.0 8.0 0.00 0.00 0.00 69 1014.4
20260505053113 63 0 0.0 9.0 0.00 0.00 0.00 68 1014.3
20260505051555 63 0 0.0 7.0 0.00 0.00 0.00 68 1014.4
20260505050113 63 160 1.0 4.0 0.00 0.00 0.00 67 1014.5
20260505041600 64 0 1.0 7.0 0.00 0.00 0.00 62 1014.2
20260505040057 63 0 0.0 5.0 0.00 0.00 0.00 62 1014.1
20260505034616 63 0 0.0 3.0 0.00 0.00 0.00 62 1014.0
20260505033108 62 0 0.0 2.0 0.00 0.00 0.00 65 1014.0
20260505031557 61 0 0.0 1.0 0.00 0.00 0.00 67 1013.8
20260505024553 62 0 0.0 0.0 0.00 0.00 0.00 66 1013.9
20260505023100 62 0 0.0 0.0 0.00 0.00 0.00 64 1013.7
20260505021602 63 0 0.0 0.0 0.00 0.00 0.00 62 1013.6
20260505020100 64 0 0.0 0.0 0.00 0.00 0.00 62 1013.4
20260505014553 64 0 0.0 0.0 0.00 0.00 0.00 61 1013.4
20260505013053 65 0 0.0 0.0 0.00 0.00 0.00 59 1013.4
20260505011610 65 0 0.0 0.0 0.00 0.00 0.00 59 1013.0
20260505010056 65 0 0.0 0.0 0.00 0.00 0.00 58 1012.8
20260505004559 66 0 0.0 0.0 0.00 0.00 0.00 55 1012.8
20260505003058 67 0 0.0 0.0 0.00 0.00 0.00 54 1012.7
20260505001608 68 0 0.0 0.0 0.00 0.00 0.00 50 1012.9
20260505000108 69 0 0.0 0.0 0.00 0.00 0.00 51 1012.8
20260504234558 71 0 0.0 0.0 0.00 0.00 0.00 45 1012.7
20260504233110 72 0 0.0 0.0 0.00 0.00 0.00 42 1012.6
20260504231556 73 0 0.0 0.0 0.00 0.00 0.00 40 1012.4
20260504230054 74 0 0.0 0.0 0.00 0.00 0.00 40 1012.5
20260504224553 74 0 0.0 4.0 0.00 0.00 0.00 38 1012.6
20260504223055 75 123 0.0 5.0 0.00 0.00 0.00 37 1012.4
20260504221555 75 0 0.0 4.0 0.00 0.00 0.00 37 1012.4
20260504220053 75 0 0.0 5.0 0.00 0.00 0.00 37 1012.4
20260504214557 75 0 0.0 4.0 0.00 0.00 0.00 36 1012.5
20260504213055 75 0 0.0 5.0 0.00 0.00 0.00 36 1012.4
20260504211557 77 234 0.0 8.0 0.00 0.00 0.00 37 1012.3
20260504210055 78 0 0.0 7.0 0.00 0.00 0.00 32 1012.5
20260504204558 79 257 0.0 6.0 0.00 0.00 0.00 34 1012.7
20260504203058 78 0 0.0 3.0 0.00 0.00 0.00 35 1012.6
20260504201556 78 0 0.0 4.0 0.00 0.00 0.00 35 1012.8
20260504194601 77 343 0.0 6.0 0.00 0.00 0.00 38 1013.0
20260504193057 76 0 0.0 3.0 0.00 0.00 0.00 38 1013.2
20260504191611 76 0 0.0 4.0 0.00 0.00 0.00 36 1013.7
20260504190053 75 0 0.0 4.0 0.00 0.00 0.00 36 1014.0
20260504184556 74 0 0.0 4.0 0.00 0.00 0.00 36 1014.1